Volver al catálogo

ARIANE 2 DEB

ActivoGTO
NORAD 26729·DEBRIS·🇫🇷 France

Lanzado Jan 27, 1989 desde Guiana Space Centre

Loading…

TLE

EnvejeciendoSource: Space-Track

Época: Sep 14, 2026, 10:56 UTC

1 26729U 89006G   26257.45577349  .00000102  00000-0  70977-3 0  9991
2 26729   8.3789 297.9015 7177333 351.5318   1.1113  2.31273509214414

Sigue ARIANE 2 DEB en tiempo real con AllMySat

Download on the App Store